Weather History for LMML - January, 2013

Change the Weather History Date:

Wednesday, January 9, 2013

  Actual Average Record
Temperature  
Mean Temperature 57 °F -  
Max Temperature 62 °F 59 °F 64 °F (2011)
Min Temperature 52 °F 49 °F 46 °F (2002)
Degree Days  
Heating Degree Days 8    
Growing Degree Days 7 (Base 50)    
Moisture  
Dew Point 50 °F    
Average Humidity 76    
Maximum Humidity 88    
Minimum Humidity 60    
Precipitation  
Precipitation 0.00 in 0.11 in - ()
Sea Level Pressure  
Sea Level Pressure 30.23 in    
Wind  
Wind Speed 9 mph ()    
Max Wind Speed 18 mph    
Max Gust Speed -    
Visibility 6.6 miles    
Events Rain    
Averages and records for this station are not official NWS values.
T = Trace of Precipitation, MM = Missing Value Source: Averaged Metar Reports

Daily Weather History Graph

Daily Weather History Graph

Search for Another Location

Airport or City:

Trip Planner

Search our weather history database for the weather conditions in past years. The results will help you decide how hot, cold, wet, or windy it might be!

Date:

Astronomy

Jan. 09, 2013 Rise Set
Actual Time 7:12 AM CET 5:06 PM CET
Civil Twilight 6:44 AM CET 5:34 PM CET
Nautical Twilight 6:12 AM CET 6:05 PM CET
Astronomical Twilight 5:41 AM CET 6:36 PM CET
Moon 4:33 AM CET (1/9) 2:49 PM CET (1/9)
Length of Visible Light 10h 49m
Length of Day
9h 53m
Waning Crescent, 8% of the Moon is Illuminated
Jan 9
Waning Crescent
Jan 11
New
Jan 19
First Quarter
Jan 27
Full
Feb 3
Last Quarter

Hourly Weather History & Observations

Time (CET) Temp. Dew Point Humidity Pressure Visibility Wind Dir Wind Speed Gust Speed Precip Events Conditions
12:15 AM 53.6 °F 50.0 °F 88% 30.27 in - WNW 4.6 mph - N/A   Clear
12:45 AM 53.6 °F 50.0 °F 88% 30.27 in - NNW 6.9 mph - N/A   Clear
1:00 AM 52 °F 49 °F 86% 30.28 in 7 mi NW 5.8 mph - -  
1:15 AM 53.6 °F 50.0 °F 88% 30.27 in - NW 5.8 mph - N/A   Clear
1:45 AM 53.6 °F 50.0 °F 88% 30.27 in 6.2 mi NW 6.9 mph - N/A   Scattered Clouds
2:15 AM 53.6 °F 50.0 °F 88% 30.27 in 6.2 mi WNW 5.8 mph - N/A   Partly Cloudy
2:45 AM 55.4 °F 51.8 °F 88% 30.27 in 6.2 mi NW 8.1 mph - N/A   Mostly Cloudy
3:15 AM 55.4 °F 50.0 °F 82% 30.24 in 6.2 mi NW 9.2 mph - N/A   Partly Cloudy
3:45 AM 55.4 °F 50.0 °F 82% 30.24 in 6.2 mi NW 12.7 mph - N/A   Scattered Clouds
4:00 AM 56 °F 49 °F 71% 30.25 in 7 mi NW 11.5 mph - -   Scattered Clouds
4:15 AM 55.4 °F 50.0 °F 82% 30.24 in 6.2 mi NW 10.4 mph - N/A   Mostly Cloudy
4:45 AM 55.4 °F 50.0 °F 82% 30.24 in 6.2 mi NW 11.5 mph - N/A   Mostly Cloudy
5:15 AM 55.4 °F 50.0 °F 82% 30.24 in 6.2 mi NW 6.9 mph - N/A   Mostly Cloudy
5:45 AM 55.4 °F 51.8 °F 88% 30.24 in 6.2 mi West 5.8 mph - N/A   Mostly Cloudy
6:15 AM 57.2 °F 51.8 °F 82% 30.24 in 6.2 mi NW 11.5 mph - N/A   Mostly Cloudy
6:45 AM 57.2 °F 50.0 °F 77% 30.24 in 6.2 mi WNW 10.4 mph - N/A   Mostly Cloudy
7:00 AM 57 °F 51 °F 76% 30.25 in 6 mi NW 9.2 mph - -  
7:15 AM 57.2 °F 51.8 °F 82% 30.24 in 6.2 mi NW 12.7 mph - N/A   Mostly Cloudy
7:45 AM 57.2 °F 50.0 °F 77% 30.24 in 6.2 mi NW 9.2 mph - N/A   Mostly Cloudy
8:15 AM 57.2 °F 48.2 °F 72% 30.24 in 6.2 mi NW 10.4 mph - N/A   Mostly Cloudy
8:45 AM 59.0 °F 48.2 °F 67% 30.24 in 6.2 mi NW 13.8 mph - N/A   Mostly Cloudy
9:15 AM 59.0 °F 50.0 °F 72% 30.27 in 6.2 mi NW 10.4 mph - N/A   Mostly Cloudy
9:45 AM 59.0 °F 50.0 °F 72% 30.27 in 6.2 mi NW 11.5 mph - N/A   Mostly Cloudy
10:00 AM 59 °F 50 °F 65% 30.28 in 9 mi NW 12.7 mph - -   Mostly Cloudy
10:15 AM 59.0 °F 51.8 °F 77% 30.27 in 6.2 mi NW 13.8 mph - N/A   Mostly Cloudy
10:45 AM 59.0 °F 51.8 °F 77% 30.27 in 6.2 mi NW 11.5 mph - N/A   Mostly Cloudy
11:15 AM 60.8 °F 51.8 °F 72% 30.27 in 6.2 mi NW 12.7 mph - N/A   Mostly Cloudy
11:45 AM 60.8 °F 51.8 °F 72% 30.24 in 6.2 mi NW 13.8 mph - N/A   Mostly Cloudy
12:15 PM 60.8 °F 50.0 °F 68% 30.24 in 6.2 mi WNW 17.3 mph - N/A   Mostly Cloudy
12:45 PM 60.8 °F 50.0 °F 68% 30.24 in 6.2 mi WNW 16.1 mph - N/A   Scattered Clouds
1:00 PM 62 °F 52 °F 60% 30.24 in 12 mi WNW 17.3 mph - -  
1:15 PM 60.8 °F 51.8 °F 72% 30.21 in 6.2 mi WNW 18.4 mph - N/A   Scattered Clouds
1:45 PM 60.8 °F 51.8 °F 72% 30.21 in 6.2 mi WNW 17.3 mph - N/A   Mostly Cloudy
2:15 PM 60.8 °F 50.0 °F 68% 30.21 in 6.2 mi WNW 15.0 mph - N/A   Scattered Clouds
2:45 PM 60.8 °F 51.8 °F 72% 30.21 in 6.2 mi WNW 12.7 mph - N/A   Scattered Clouds
3:15 PM 60.8 °F 51.8 °F 72% 30.21 in 6.2 mi West 13.8 mph - N/A   Scattered Clouds
3:45 PM 59.0 °F 50.0 °F 72% 30.21 in 6.2 mi WNW 13.8 mph - N/A   Scattered Clouds
4:00 PM 60 °F 51 °F 63% 30.22 in 12 mi WNW 12.7 mph - -   Partly Cloudy
4:15 PM 59.0 °F 51.8 °F 77% 30.21 in 6.2 mi WNW 11.5 mph - N/A   Scattered Clouds
4:45 PM 59.0 °F 50.0 °F 72% 30.21 in 6.2 mi WNW 11.5 mph - N/A   Scattered Clouds
5:15 PM 57.2 °F 50.0 °F 77% 30.21 in 6.2 mi West 10.4 mph - N/A   Scattered Clouds
5:45 PM 57.2 °F 50.0 °F 77% 30.21 in 6.2 mi West 9.2 mph - N/A   Mostly Cloudy
6:15 PM 57.2 °F 50.0 °F 77% 30.21 in 6.2 mi WNW 8.1 mph - N/A   Mostly Cloudy
6:45 PM 57.2 °F 50.0 °F 77% 30.21 in 6.2 mi NW 8.1 mph - N/A   Mostly Cloudy
7:00 PM 58 °F 52 °F 73% 30.22 in 9 mi NW 8.1 mph - -  
7:15 PM 57.2 °F 51.8 °F 82% 30.21 in 6.2 mi NW 9.2 mph - N/A Rain Light Rain
7:45 PM 57.2 °F 51.8 °F 82% 30.21 in 6.2 mi NNW 9.2 mph - N/A   Mostly Cloudy
8:15 PM 55.4 °F 50.0 °F 82% 30.21 in 6.2 mi NW 8.1 mph - N/A   Mostly Cloudy
8:45 PM 55.4 °F 50.0 °F 82% 30.21 in 6.2 mi NW 9.2 mph - N/A   Mostly Cloudy
9:15 PM 57.2 °F 50.0 °F 77% 30.21 in 6.2 mi NW 9.2 mph - N/A   Mostly Cloudy
9:45 PM 57.2 °F 50.0 °F 77% 30.21 in 6.2 mi NW 11.5 mph - N/A   Mostly Cloudy
10:00 PM 57 °F 50 °F 72% 30.21 in 7 mi NW 11.5 mph - -   Partly Cloudy
10:15 PM 57.2 °F 50.0 °F 77% 30.21 in 6.2 mi NW 11.5 mph - N/A   Overcast
10:45 PM 57.2 °F 48.2 °F 72% 30.18 in 6.2 mi NW 12.7 mph - N/A   Overcast
11:15 PM 57.2 °F 46.4 °F 67% 30.18 in 6.2 mi NW 11.5 mph - N/A   Overcast
11:45 PM 57.2 °F 48.2 °F 72% 30.18 in 6.2 mi NW 10.4 mph - N/A   Overcast